COSMOS 1275 DEB, 12707

Orbit data source: Space-Track

COSMOS 1275 DEB, 12707 is space debris in LEO originally from a launch on Thu, 04 Jun 1981 UTC launched from the Plesetsk Missile And Space Complex (PKMTR). Debris objects in space refer to the collection of defunct objects orbiting the Earth. Examples of debris include non-operational satellites, rocket bodies, and fragments generated from explosions, collisions, or faulty payload assembly.

Loading next visibility...
Identifier
12707, 1981-053BB
Orbit
LEO
Country
Flag of CISCIS
Related business
Manufacturer
Unknown
Mission
Spacecraft
Bus & Motor
Unknown
Mass
Unknown
Launch date (UTC)
1981-06-04 (44 years ago)
Launch vehicle
Unknown
Launch site
Plesetsk Missile And Space Complex (PKMTR)
Object type
Payload
Rocket body
Debris
Shape & HBR
Unknown shape, 0.1 m
Radar Cross Section
Small (<0.1 m²)

Expand to show TLE details & history
Last TLE update: 16 hours ago

TLE from 16 hours ago
0 COSMOS 1275 DEB
1 12707U 81053BB  25286.90373008  .00000519  00000-0  64195-3 0  9990
2 12707  83.0139 206.3668 0131834  81.0307  10.4443 13.59593225185467
Epoch: 2025-10-13T21:41Z
TLE epoch observation values (Epoch: 2025-10-13T21:41:22.278Z)
Latitude
82.83503°
Longitude
-37.53262°
Altitude
954.644 km
Speed
7.429 km/s
True Right ascension
20h 42m 02s
True Declination
82° 47' 37"
Sunlit
Object was in daylight at epoch
Visualization orbit readout
Latitude
Unknown
Longitude
Unknown
Altitude
Unknown
Speed
Unknown
Apparent Right ascension
Unknown
Apparent Declination
Unknown
Sunlit
N/A
Visualization observer readout
Local Sidereal Time
08:19:45
Azimuth
Unknown
Elevation
Unknown
Doppler factor
Unknown
Orbital elements
Apogee altitude
1,132.059 km
Perigee altitude
936.616 km
Semi-major axis
7,412.475 km
Eccentricity
0.01318
Inclination
83.0139°
RAAN
206.3668°
Arg. of periapsis
81.0307°
True anomaly
10.72267°
Mean anomaly
10.4443°
Eccentric anomaly
10.58303°
Mean motion
3.40094 °/min
Orbital period
105.85 mins
BSTAR
0.00064195
Loading maneuver chart data...
Computing Atmospheric mass density...

Documentation

Showing up to 5 results
|